User: anonymous   Login
Location: Unspecified
(0.0000°N, 0.0000°E)
Time: 06:06:52
(UTC+00:00)
Language:

NOSS 2-1 (D) - Orbit

View from above orbital plane
View from above orbital plane
View from above satellite
View from above satellite

Ground track
Ground track

The orbit data is extracted from the following two-line orbital elements,

1 20692U 90050D   18143.09421689 0.00000210  00000-0  45398-4 0    08
2 20692  63.3330  32.3379 0819581  35.5492 324.4508 13.41802942    06
Epoch (UTC): 23 May 2018 02:15:40
Eccentricity: 0.0819581
inclination: 63.3330°
perigee height: 489 km
apogee height: 1715 km
right ascension of ascending node: 32.3379°
argument of perigee: 35.5492°
revolutions per day: 13.41802942
mean anomaly at epoch: 324.4508°
orbit number at epoch: 0

The dashed part of the orbit path shows where the satellite is in the earth's shadow,  

DLR